Weather History for Springfield, MO

Change the Weather History Date:

Friday, July 26, 2013

  Actual Average Record
Temperature  
Mean Temperature 69 °F 79 °F  
Max Temperature 73 °F 90 °F 101 °F (1952)
Min Temperature 64 °F 68 °F 54 °F (1962)
Degree Days  
Heating Degree Days 0 0  
Month to date heating degree days 0 0  
Since 1 June heating degree days 14 9  
Since 1 July heating degree days 0 0  
Cooling Degree Days 4 14  
Month to date cooling degree days 332 341  
Year to date cooling degree days 743 719  
Since 1 June cooling degree days 616 604  
Growing Degree Days 18 (Base 50)    
Moisture  
Dew Point 66 °F    
Average Humidity 83    
Maximum Humidity 97    
Minimum Humidity 68    
Precipitation  
Precipitation 1.51 in 0.10 in 4.66 in (1905)
Month to date precipitation 3.68 3.19  
Year to date precipitation 29.66 26.07  
Snow  
Snow 0.00 in - - ()
Month to date snowfall 0.0  
Since 1 June snowfall 0.0  
Since 1 July snowfall 0.0  
Snow Depth 0.00 in    
Sea Level Pressure  
Sea Level Pressure 30.04 in    
Wind  
Wind Speed 7 mph (SE)    
Max Wind Speed 15 mph    
Max Gust Speed 18 mph    
Visibility 7 miles    
Events Fog , Rain , Thunderstorm    
T = Trace of Precipitation, MM = Missing Value Source: NWS Daily Summary

Daily Weather History Graph

Daily Weather History Graph

Search for Another Location

Airport:

Trip Planner

Search our weather history database for the weather conditions in past years. The results will help you decide how hot, cold, wet, or windy it might be!

Date:

Astronomy

Jul. 26, 2013 Rise Set
Actual Time 6:13 AM CDT 8:26 PM CDT
Civil Twilight 5:44 AM CDT 8:55 PM CDT
Nautical Twilight 5:08 AM CDT 9:31 PM CDT
Astronomical Twilight 4:29 AM CDT 10:10 PM CDT
Moon 10:48 PM CDT (7/26) 10:42 AM CDT (7/26)
Length of Visible Light 15h 11m
Length of Day
14h 12m
Waning Gibbous, 80% of the Moon is Illuminated
Jul 26
Waning Gibbous
Jul 29
Last Quarter
Aug 6
New
Aug 14
First Quarter
Aug 20
Full

Hourly Weather History & Observations

Time (CDT) Temp. Dew Point Humidity Pressure Visibility Wind Dir Wind Speed Gust Speed Precip Events Conditions
12:52 AM 73.0 °F 62.1 °F 68% 30.01 in 10.0 mi SSE 9.2 mph - N/A   Clear
1:52 AM 72.0 °F 63.0 °F 73% 30.01 in 10.0 mi SSE 10.4 mph - N/A   Clear
2:52 AM 72.0 °F 62.1 °F 71% 29.99 in 10.0 mi SSE 9.2 mph - N/A   Partly Cloudy
3:52 AM 72.0 °F 63.0 °F 73% 29.99 in 10.0 mi SSE 8.1 mph - N/A   Overcast
4:52 AM 72.0 °F 64.0 °F 76% 29.99 in 10.0 mi South 8.1 mph - N/A   Overcast
5:52 AM 71.1 °F 64.0 °F 78% 30.00 in 10.0 mi SSE 10.4 mph - N/A   Overcast
6:52 AM 71.1 °F 64.0 °F 78% 29.99 in 10.0 mi SSE 9.2 mph - N/A   Overcast
7:52 AM 71.1 °F 64.9 °F 81% 29.99 in 10.0 mi SSE 13.8 mph - 0.00 in Rain Light Rain
8:41 AM 70.0 °F 66.0 °F 87% 30.05 in 8.0 mi North 3.5 mph - 0.00 in Rain , Thunderstorm Light Rain
8:52 AM 69.1 °F 66.0 °F 90% 30.04 in 6.0 mi West 4.6 mph - 0.01 in Rain , Thunderstorm Light Rain
9:16 AM 69.1 °F 66.0 °F 90% 30.08 in 1.8 mi West 8.1 mph - 0.07 in Rain , Thunderstorm Heavy Rain
9:32 AM 68.0 °F 66.0 °F 93% 30.08 in 0.8 mi West 5.8 mph - 0.23 in Rain , Thunderstorm Heavy Rain
9:39 AM 68.0 °F 66.0 °F 93% 30.08 in 0.5 mi Calm Calm - 0.36 in Fog , Rain , Thunderstorm Heavy Thunderstorms and Rain
9:47 AM 68.0 °F 66.2 °F 94% 30.08 in 1.0 mi South 3.5 mph - 0.42 in Rain , Thunderstorm Heavy Thunderstorms and Rain
9:52 AM 68.0 °F 66.0 °F 93% 30.05 in 1.2 mi SE 3.5 mph - 0.46 in Rain , Thunderstorm Thunderstorms and Rain
9:56 AM 68.0 °F 66.9 °F 96% 30.08 in 2.0 mi Calm Calm - 0.01 in Rain Rain
10:02 AM 68.0 °F 66.9 °F 96% 30.08 in 5.0 mi NE 4.6 mph - 0.02 in Rain , Thunderstorm Light Thunderstorms and Rain
10:19 AM 68.0 °F 66.9 °F 96% 30.08 in 5.0 mi NNE 4.6 mph - 0.03 in Rain Rain
10:52 AM 69.1 °F 66.9 °F 93% 30.05 in 10.0 mi East 4.6 mph - 0.05 in Rain Light Rain
11:04 AM 70.0 °F 68.0 °F 93% 30.08 in 10.0 mi East 5.8 mph - 0.00 in Rain Light Rain
11:21 AM 71.1 °F 69.1 °F 93% 30.08 in 10.0 mi East 5.8 mph - 0.00 in Rain Light Rain
11:28 AM 71.1 °F 69.1 °F 93% 30.08 in 10.0 mi East 5.8 mph - 0.00 in Rain Light Rain
11:50 AM 71.6 °F 69.8 °F 94% 30.08 in 9.0 mi East 3.5 mph - 0.00 in Rain Light Rain
11:52 AM 71.1 °F 69.1 °F 93% 30.05 in 8.0 mi ESE 4.6 mph - 0.01 in Rain Light Rain
12:04 PM 71.1 °F 69.1 °F 93% 30.08 in 9.0 mi SE 6.9 mph - 0.00 in Rain Light Rain
12:40 PM 71.1 °F 69.1 °F 93% 30.08 in 6.0 mi SSE 9.2 mph - 0.03 in Rain Rain
12:47 PM 71.6 °F 68.0 °F 88% 30.08 in 4.0 mi SSE 9.2 mph - 0.05 in Rain Rain
12:52 PM 70.0 °F 66.9 °F 90% 30.05 in 5.0 mi SSE 10.4 mph - 0.05 in Rain Light Rain
1:52 PM 68.0 °F 64.9 °F 90% 30.04 in 2.5 mi SSE 9.2 mph - 0.15 in Rain Heavy Rain
2:14 PM 66.9 °F 64.9 °F 93% 30.07 in 1.2 mi SE 6.9 mph - 0.18 in Rain Heavy Rain
2:38 PM 68.0 °F 66.0 °F 93% 30.06 in 3.0 mi SSE 5.8 mph - 0.38 in Rain Rain
2:52 PM 68.0 °F 66.9 °F 96% 30.04 in 2.5 mi SSE 8.1 mph - 0.41 in Rain Heavy Rain
3:18 PM 68.0 °F 66.9 °F 96% 30.06 in 1.5 mi ESE 6.9 mph - 0.14 in Rain Heavy Rain
3:33 PM 68.0 °F 66.9 °F 96% 30.06 in 2.0 mi ESE 6.9 mph - 0.21 in Rain Rain
3:45 PM 69.1 °F 66.9 °F 93% 30.05 in 3.0 mi SE 9.2 mph - 0.23 in Rain Rain
3:52 PM 69.1 °F 66.9 °F 93% 30.02 in 3.0 mi SE 9.2 mph - 0.25 in Rain Rain
4:08 PM 69.1 °F 68.0 °F 96% 30.05 in 3.0 mi SE 6.9 mph - 0.03 in Rain Rain
4:16 PM 69.1 °F 68.0 °F 96% 30.05 in 4.0 mi ESE 6.9 mph - 0.04 in Rain Light Rain
4:31 PM 70.0 °F 68.0 °F 93% 30.05 in 5.0 mi SE 5.8 mph - 0.05 in Rain Light Rain
4:52 PM 70.0 °F 68.0 °F 93% 30.02 in 7.0 mi SE 8.1 mph - 0.05 in Rain Light Rain
5:00 PM 70.0 °F 66.9 °F 90% 30.05 in 6.0 mi SE 6.9 mph - 0.01 in Rain Light Rain
5:09 PM 70.0 °F 66.9 °F 90% 30.05 in 8.0 mi SSE 5.8 mph - 0.02 in Rain Light Rain
5:52 PM 69.1 °F 66.0 °F 90% 30.03 in 7.0 mi SSE 6.9 mph - 0.02 in Rain Light Rain
6:14 PM 69.1 °F 66.9 °F 93% 30.04 in 1.8 mi SE 5.8 mph - 0.02 in Rain Rain
6:21 PM 70.0 °F 68.0 °F 93% 30.04 in 2.0 mi SE 6.9 mph - 0.05 in Rain Light Rain
6:25 PM 70.0 °F 66.9 °F 90% 30.04 in 5.0 mi SE 8.1 mph - 0.05 in Rain Light Rain
6:52 PM 69.1 °F 66.9 °F 93% 30.00 in 10.0 mi SSE 6.9 mph - 0.05 in   Overcast
7:10 PM 69.1 °F 66.0 °F 90% 30.03 in 10.0 mi SE 6.9 mph - N/A   Overcast
7:52 PM 69.1 °F 66.0 °F 90% 30.00 in 10.0 mi South 4.6 mph - N/A   Overcast
8:00 PM 69.1 °F 66.0 °F 90% 30.03 in 10.0 mi South 5.8 mph - N/A   Overcast
8:40 PM 68.0 °F 66.0 °F 93% 30.02 in 10.0 mi South 3.5 mph - N/A   Mostly Cloudy
8:52 PM 66.9 °F 64.9 °F 93% 30.00 in 10.0 mi SSW 4.6 mph - N/A   Mostly Cloudy
9:52 PM 66.9 °F 64.9 °F 93% 30.00 in 10.0 mi South 6.9 mph - N/A   Overcast
10:52 PM 66.9 °F 64.9 °F 93% 30.00 in 10.0 mi South 6.9 mph - N/A   Overcast
11:32 PM 66.0 °F 64.0 °F 93% 30.04 in 10.0 mi Calm Calm - N/A   Scattered Clouds
11:52 PM 66.0 °F 64.0 °F 93% 30.01 in 9.0 mi Calm Calm - N/A   Clear